This is the latest recevied weather packets stored in our database for station/object KD6VLN-14. If no packets are shown the sender has not sent any weather packets the latest 10 day(s).
| Time | Temp. | Humidity | Pressure | Rain* | Wind** | Luminosity | Snow |
|---|---|---|---|---|---|---|---|
| 1777755293 | 33.89° C | 32% | - | 0 mm | - | - | - |
| 1777755235 | 33.89° C | 32% | - | 0 mm | - | - | - |
| 1777754636 | 33.33° C | 24% | - | 0 mm | - | - | - |
| 1777754335 | 33.33° C | 25% | - | 0 mm | - | - | - |
| 1777754036 | 33.33° C | 30% | - | 0 mm | - | - | - |
| 1777753996 | 33.33° C | 28% | - | 0 mm | - | - | - |
| 1777753735 | 33.33° C | 28% | - | 0 mm | - | - | - |
| 1777753436 | 32.78° C | 28% | - | 0 mm | - | - | - |
| 1777753135 | 32.78° C | 29% | - | 0 mm | - | - | - |
| 1777752835 | 33.33° C | 33% | - | 0 mm | - | - | - |
| 1777752536 | 33.33° C | 33% | - | 0 mm | - | - | - |
| 1777752238 | 33.33° C | 34% | - | 0 mm | - | - | - |
| 1777751935 | 32.22° C | 33% | - | 0 mm | - | - | - |
| 1777751858 | 31.67° C | 33% | - | 0 mm | - | - | - |
| 1777751636 | 31.67° C | 33% | - | 0 mm | - | - | - |
| 1777751335 | 31.67° C | 30% | - | 0 mm | - | - | - |
| 1777751035 | 31.67° C | 32% | - | 0 mm | - | - | - |
| 1777750735 | 31.67° C | 28% | - | 0 mm | - | - | - |
| 1777750435 | 30.56° C | 32% | - | 0 mm | - | - | - |
| 1777750135 | 30° C | 34% | - | 0 mm | - | - | - |
| 1777749835 | 28.89° C | 33% | - | 0 mm | - | - | - |
| 1777749535 | 28.33° C | 32% | - | 0 mm | - | - | - |
| 1777749235 | 28.33° C | 32% | - | 0 mm | - | - | - |
| 1777748936 | 28.33° C | 33% | - | 0 mm | - | - | - |
| 1777748635 | 28.89° C | 33% | - | 0 mm | - | - | - |
* Rain latest hour (hover to see other rain measurements)
** Current wind speed in m/s (hover to see current wind gust speed)